Location: Belloy
(55.7522°N, 118.2333°W)
Time: 00:05:31
(UTC+00:00)

Envisat - Pass Details

Date: 01 December 2021
Orbit: 764 x 766 km, 98.2° (Epoch: 27 January)

Event Time Altitude Azimuth Distance (km) Brightness Sun altitude
Rises 12:21:34 0° 19° (NNE) 3,249 6.5 -29.2°
Reaches altitude 10° 12:24:03 10° 28° (NNE) 2,318 5.8 -28.8°
Maximum altitude 12:28:47 37° 95° (E) 1,186 4.4 -28.2°
Drops below altitude 10° 12:33:28 10° 163° (SSE) 2,301 5.6 -27.5°
Sets 12:35:56 0° 172° (S) 3,223 6.3 -27.2°
